Regional Weather Roundup
Issued by NWS

Home | Current Version | Previous Version | Graphics & Text | Print | Product List | Glossary On
Versions: 1 2 3 4 5 6 7 8 9 10 11 12 13 14 15 16 17 18 19 20 21 22 23 24 25 26 27 28 29 30 31 32 33 34 35 36 37 38 39 40 41 42 43 44 45 46 47 48 49 50
000
ASUS43 KIND 291609
RWRIN

WEATHER ROUNDUP FOR INDIANA
NATIONAL WEATHER SERVICE INDIANAPOLIS IN
1200 PM EDT SAT AUG 29 2015

NOTE: "FAIR" INDICATES FEW OR NO CLOUDS BELOW 12,000 FEET WITH NO
SIGNIFICANT WEATHER AND/OR OBSTRUCTIONS TO VISIBILITY.

* - STATION DOES NOT REPORT WEATHER SUCH AS PRECIPITATION OR FOG.

+ - STATION NOT QUALITY CONTROLLED BY THE NATIONAL WEATHER SERVICE.
    USE DATA WITH CAUTION...ESPECIALLY DEWPOINT AND RELATIVE
    HUMIDITY OBSERVATIONS.

INZ001>003-010>013-019-020-291700-
NORTHWEST INDIANA

CITY           SKY/WX    TMP DP  RH WIND       PRES   REMARKS
GARY /AIRPORT/ CLOUDY    68  64  88 SE6       30.06S
KNOX *+        CLOUDY    68  63  83 E3        30.08S
LA PORTE +     CLOUDY    67  67 100 CALM      30.08F FOG
MICHIGAN CITY+ CLOUDY    64  64 100 SE3       30.07F
MONTICELLO +   CLOUDY    74  66  75 S3        30.08R
RENSSELAER +   CLOUDY    73  68  83 S3        30.07S
VALPARAISO     CLOUDY    68  64  87 E6        30.07F

$$

LMZ046-743>745-291700-
SOUTHERN LAKE MICHIGAN

STATION/POSITION TIME  TEMP    WIND        PRES    WAVE
                       AIR SEA DIR/SP/G            HT
                 (UTC) (F)     (DEG/KT/KT) (MB)    (FT)
BURNS HARBOR     1500   67     120/  7/ 11 1018.6F
MICHIGAN CITY    1500   64      60/  8/  9   N/A
5NW MICH CITY    1600   67 70  130/ 10/ 12   N/A     1

$$

INZ004-005-014>016-021>024-291700-
NORTH CENTRAL INDIANA

CITY           SKY/WX    TMP DP  RH WIND       PRES   REMARKS
ELKHART        CLOUDY    66  64  94 E3        30.10S
GOSHEN         CLOUDY    72  64  76 SE3       30.10S
LOGANSPORT +   CLOUDY    75  61  60 SW5       30.10S
PERU/GRISSOM   CLOUDY    76  66  71 SW7       30.09R
ROCHESTER +    CLOUDY    73  64  73 SE3       30.10S
SOUTH BEND     LGT RAIN  65  63  93 SE7       30.09F
WARSAW +       CLOUDY    72  63  73 CALM      30.10S

$$

INZ006>009-017-018-025>027-291700-
NORTHEAST INDIANA

CITY           SKY/WX    TMP DP  RH WIND       PRES   REMARKS
ANGOLA *+      MOSUNNY   72  64  78 SE3       30.12R
AUBURN +       PTSUNNY   73  61  64 CALM      30.12S
FORT WAYNE     PTSUNNY   77  65  66 CALM      30.11S
HUNTINGTON +   MOSUNNY   78  61  55 SW6       30.10S

$$

INZ028-029-035-036-043>045-051>053-291700-
WEST CENTRAL INDIANA

CITY           SKY/WX    TMP DP  RH WIND       PRES   REMARKS
CRAWFORDSVL +  CLOUDY    73  63  72 S5        30.09R
GREENCASTLE +  CLOUDY    73  63  68 S7        30.10S
LAFAYETTE      CLOUDY    75  64  68 S5        30.08R
TERRE HAUTE    CLOUDY    78  66  66 S8        30.08S

$$

INZ030>032-037>040-046>048-054>057-064-065-291700-
CENTRAL INDIANA

CITY           SKY/WX    TMP DP  RH WIND       PRES   REMARKS
ANDERSON       SUNNY     79  61  53 S9        30.12S
FRANKFORT +    CLOUDY    76  67  74 S6        30.11R
GREENWOOD *+   CLOUDY    77  63  61 SW5       30.11S
INDIANAPOLIS   CLOUDY    77  65  66 SW9       30.09S
-EAGLE CREEK   CLOUDY    77  65  66 S6        30.09S
KOKOMO *+      PTSUNNY   77  64  65 SW7       30.10R
MARION +       MOSUNNY   79  56  45 SW8       30.11S
MT COMFORT *+  PTSUNNY   77  61  57 S5        30.11F
SHELBYVILLE    CLOUDY    79  66  64 SW8       30.11S
ZIONSVILLE +   CLOUDY    77  65  65 S6        30.11S

$$

INZ033-034-041-042-049-050-058-059-291700-
EAST CENTRAL INDIANA

CITY           SKY/WX    TMP DP  RH WIND       PRES   REMARKS
MUNCIE         MOSUNNY   78  65  63 SW10      30.11S

$$

INZ060-061-067>069-081>083-085>088-291700-
SOUTHWEST INDIANA

CITY           SKY/WX    TMP DP  RH WIND       PRES   REMARKS
EVANSVILLE     CLOUDY    81  70  69 S9        30.10S
HUNTINGBURG *+ PTSUNNY   81  70  69 SW12      30.11S
WASHINGTON +   CLOUDY    79  66  65 S8        30.10R

$$

INZ062-063-066-070>080-084-089>092-291700-
SOUTH CENTRAL AND SOUTHEAST INDIANA

CITY           SKY/WX    TMP DP  RH WIND       PRES   REMARKS
BLOOMINGTON    CLOUDY    77  68  73 S7        30.11S
MADISON *+     MOSUNNY   81  66  61 S8        30.16S
NORTH VERNON + PTSUNNY   79  68  69 SE7       30.14
SEYMOUR +      PTSUNNY   82  68  61 S8        30.12S

$$



USA.gov is the U.S. government's official web portal to all federal, state and local government web resources and services.